Location: Peterborough
(44.3091°N, 78.3197°W)
Time: 06:26:35
(UTC-04:00)

A-11 Canister half - Pass Details

Date: 24 March 2023
Orbit: 1513 x 1686 km, 47.2° (Epoch: 04 June)

Event Time Altitude Azimuth Distance (km) Brightness Sun altitude
Rises 23:44:17 0° 242° (WSW) 4,823 11.7 -39.7°
Reaches altitude 10° 23:47:21 10° 242° (WSW) 3,860 11.1 -40.0°
Enters shadow 23:50:30 24° 241° (WSW) 2,913 10.4 -40.2°
Exits shadow 00:07:49 - 71° (ENE) 4,045 11.1 -41.7°
Sets 00:10:42 0° 70° (ENE) 4,945 11.6 -41.9°
